| time (UTC) | temp F | wind direction | speed MPH | gust MPH | rain 1hr in | rain 24hr in | rain mn in | humidity % | barometer mb |
| 20260509083025 | 54 | 139 | 1.0 | 6.0 | 0.00 | 0.00 | 0.00 | 88 | 1002.1 |
| 20260509081509 | 54 | 234 | 0.0 | 7.0 | 0.00 | 0.00 | 0.00 | 87 | 1002.0 |
| 20260509080011 | 54 | 219 | 0.0 | 6.0 | 0.00 | 0.00 | 0.00 | 87 | 1002.1 |
| 20260509074520 | 54 | 231 | 1.0 | 7.0 | 0.00 | 0.00 | 0.00 | 87 | 1002.1 |
| 20260509073005 | 55 | 225 | 0.0 | 6.0 | 0.00 | 0.00 | 0.00 | 86 | 1002.2 |
| 20260509071501 | 55 | 223 | 2.0 | 6.0 | 0.00 | 0.00 | 0.00 | 86 | 1002.6 |
| 20260509070101 | 55 | 262 | 1.0 | 8.0 | 0.00 | 0.00 | 0.00 | 86 | 1002.8 |
| 20260509064557 | 55 | 227 | 0.0 | 7.0 | 0.00 | 0.00 | 0.00 | 86 | 1003.0 |
| 20260509063112 | 55 | 220 | 2.0 | 5.0 | 0.00 | 0.00 | 0.00 | 85 | 1003.1 |
| 20260509061556 | 55 | 155 | 1.0 | 4.0 | 0.00 | 0.00 | 0.00 | 84 | 1003.4 |
| 20260509060054 | 55 | 221 | 0.0 | 4.0 | 0.00 | 0.00 | 0.00 | 84 | 1003.5 |
| 20260509054552 | 56 | 213 | 2.0 | 5.0 | 0.00 | 0.00 | 0.00 | 83 | 1003.7 |
| 20260509053048 | 55 | 256 | 2.0 | 6.0 | 0.00 | 0.00 | 0.00 | 82 | 1003.6 |
| 20260509051551 | 55 | 225 | 0.0 | 4.0 | 0.00 | 0.00 | 0.00 | 80 | 1003.7 |
| 20260509050057 | 55 | 226 | 0.0 | 3.0 | 0.00 | 0.00 | 0.00 | 79 | 1003.6 |
| 20260509044543 | 55 | 236 | 0.0 | 7.0 | 0.00 | 0.00 | 0.00 | 78 | 1003.7 |
| 20260509043047 | 55 | 223 | 1.0 | 6.0 | 0.00 | 0.00 | 0.00 | 78 | 1003.4 |
| 20260509041541 | 55 | 225 | 1.0 | 6.0 | 0.00 | 0.00 | 0.00 | 76 | 1003.8 |
| 20260509040040 | 54 | 229 | 2.0 | 5.0 | 0.00 | 0.00 | 0.00 | 76 | 1003.8 |
| 20260509034538 | 54 | 218 | 2.0 | 7.0 | 0.00 | 0.00 | 0.00 | 75 | 1003.9 |
| 20260509033046 | 54 | 238 | 2.0 | 7.0 | 0.00 | 0.00 | 0.00 | 75 | 1004.0 |
| 20260509031536 | 54 | 249 | 0.0 | 5.0 | 0.00 | 0.00 | 0.00 | 76 | 1004.0 |
| 20260509030034 | 53 | 232 | 1.0 | 3.0 | 0.00 | 0.00 | 0.00 | 78 | 1004.2 |
| 20260509024536 | 53 | 235 | 1.0 | 4.0 | 0.00 | 0.00 | 0.00 | 78 | 1004.3 |
| 20260509023032 | 53 | 229 | 2.0 | 7.0 | 0.00 | 0.00 | 0.00 | 81 | 1004.4 |
| 20260509021532 | 53 | 223 | 4.0 | 10.0 | 0.00 | 0.00 | 0.00 | 81 | 1004.4 |
| 20260509020029 | 53 | 228 | 4.0 | 8.0 | 0.00 | 0.00 | 0.00 | 80 | 1004.6 |
| 20260509014530 | 53 | 219 | 5.0 | 10.0 | 0.00 | 0.00 | 0.00 | 77 | 1004.6 |
| 20260509013029 | 54 | 230 | 2.0 | 12.0 | 0.00 | 0.00 | 0.00 | 73 | 1004.7 |
| 20260509011529 | 54 | 184 | 8.0 | 13.0 | 0.00 | 0.00 | 0.00 | 71 | 1004.7 |
| 20260509010033 | 54 | 229 | 7.0 | 15.0 | 0.00 | 0.00 | 0.00 | 68 | 1004.6 |
| 20260509004526 | 54 | 183 | 7.0 | 15.0 | 0.00 | 0.00 | 0.00 | 64 | 1004.5 |
| 20260509003026 | 54 | 237 | 7.0 | 15.0 | 0.00 | 0.00 | 0.00 | 61 | 1004.6 |
| 20260509001525 | 54 | 229 | 7.0 | 17.0 | 0.00 | 0.00 | 0.00 | 60 | 1004.7 |
| 20260509000037 | 54 | 219 | 9.0 | 14.0 | 0.00 | 0.00 | 0.00 | 57 | 1004.8 |
| 20260508234522 | 55 | 233 | 9.0 | 15.0 | 0.00 | 0.00 | 0.00 | 57 | 1005.0 |
| 20260508233021 | 55 | 196 | 8.0 | 14.0 | 0.00 | 0.00 | 0.00 | 60 | 1005.1 |
| 20260508231519 | 55 | 194 | 8.0 | 13.0 | 0.00 | 0.00 | 0.00 | 59 | 1005.3 |
| 20260508230017 | 55 | 232 | 7.0 | 12.0 | 0.00 | 0.00 | 0.00 | 62 | 1005.2 |
| 20260508224538 | 55 | 240 | 7.0 | 13.0 | 0.00 | 0.00 | 0.00 | 61 | 1005.4 |
| 20260508223014 | 55 | 238 | 8.0 | 12.0 | 0.00 | 0.00 | 0.00 | 60 | 1005.4 |
| 20260508221513 | 55 | 211 | 8.0 | 12.0 | 0.00 | 0.00 | 0.00 | 67 | 1005.4 |
| 20260508220010 | 54 | 207 | 7.0 | 11.0 | 0.00 | 0.00 | 0.00 | 69 | 1005.7 |
| 20260508214511 | 54 | 228 | 8.0 | 11.0 | 0.00 | 0.00 | 0.00 | 71 | 1005.8 |
| 20260508213008 | 54 | 212 | 6.0 | 9.0 | 0.00 | 0.00 | 0.00 | 68 | 1005.8 |
| 20260508211505 | 54 | 212 | 6.0 | 9.0 | 0.00 | 0.00 | 0.00 | 72 | 1006.0 |
| 20260508210005 | 54 | 216 | 5.0 | 8.0 | 0.00 | 0.00 | 0.00 | 70 | 1006.2 |
| 20260508204503 | 54 | 215 | 4.0 | 9.0 | 0.00 | 0.02 | 0.00 | 74 | 1006.3 |
| 20260508203107 | 54 | 218 | 6.0 | 8.0 | 0.00 | 0.02 | 0.00 | 75 | 1006.5 |
| 20260508201558 | 54 | 215 | 7.0 | 10.0 | 0.00 | 0.02 | 0.00 | 78 | 1006.8 |
| 20260508200109 | 54 | 229 | 5.0 | 8.0 | 0.00 | 0.02 | 0.00 | 81 | 1007.0 |
| 20260508194554 | 53 | 207 | 4.0 | 7.0 | 0.00 | 0.03 | 0.00 | 82 | 1007.1 |
| 20260508193101 | 54 | 213 | 5.0 | 7.0 | 0.00 | 0.03 | 0.00 | 82 | 1007.2 |
| 20260508191551 | 54 | 209 | 1.0 | 4.0 | 0.00 | 0.03 | 0.00 | 83 | 1007.4 |
| 20260508190046 | 53 | 209 | 1.0 | 5.0 | 0.00 | 0.03 | 0.00 | 86 | 1007.7 |
| 20260508184544 | 52 | 213 | 3.0 | 6.0 | 0.00 | 0.03 | 0.00 | 87 | 1008.0 |
| 20260508183058 | 52 | 219 | 5.0 | 8.0 | 0.00 | 0.03 | 0.00 | 87 | 1008.2 |
| 20260508181550 | 52 | 201 | 5.0 | 7.0 | 0.00 | 0.03 | 0.00 | 87 | 1008.3 |
| 20260508180040 | 52 | 215 | 5.0 | 8.0 | 0.00 | 0.03 | 0.00 | 87 | 1008.4 |
| 20260508174538 | 51 | 217 | 5.0 | 7.0 | 0.00 | 0.03 | 0.00 | 86 | 1008.7 |
| 20260508173037 | 51 | 235 | 5.0 | 7.0 | 0.00 | 0.03 | 0.00 | 86 | 1008.9 |
| 20260508171537 | 52 | 200 | 3.0 | 6.0 | 0.00 | 0.03 | 0.00 | 84 | 1009.0 |
| 20260508170031 | 51 | 211 | 3.0 | 6.0 | 0.00 | 0.03 | 0.00 | 85 | 1009.2 |
| 20260508164531 | 52 | 201 | 3.0 | 6.0 | 0.00 | 0.03 | 0.00 | 84 | 1009.5 |
| 20260508163029 | 52 | 209 | 2.0 | 5.0 | 0.00 | 0.03 | 0.00 | 84 | 1009.8 |
| 20260508161534 | 51 | 194 | 4.0 | 7.0 | 0.00 | 0.03 | 0.00 | 83 | 1009.8 |
| 20260508160027 | 51 | 205 | 4.0 | 6.0 | 0.00 | 0.03 | 0.00 | 83 | 1010.0 |
| 20260508154523 | 51 | 205 | 3.0 | 7.0 | 0.00 | 0.03 | 0.00 | 83 | 1010.0 |
| 20260508153024 | 50 | 207 | 4.0 | 7.0 | 0.00 | 0.03 | 0.00 | 84 | 1010.1 |
| 20260508151519 | 50 | 210 | 5.0 | 7.0 | 0.00 | 0.03 | 0.00 | 85 | 1010.1 |
| 20260508150021 | 49 | 207 | 3.0 | 5.0 | 0.00 | 0.03 | 0.00 | 87 | 1010.2 |
| 20260508144534 | 49 | 218 | 3.0 | 5.0 | 0.00 | 0.03 | 0.00 | 88 | 1010.3 |
| 20260508143025 | 49 | 211 | 3.0 | 6.0 | 0.00 | 0.03 | 0.00 | 87 | 1010.2 |
| 20260508141521 | 49 | 173 | 0.0 | 3.0 | 0.00 | 0.03 | 0.00 | 87 | 1010.2 |
| 20260508140011 | 49 | 144 | 0.0 | 0.0 | 0.00 | 0.03 | 0.00 | 87 | 1010.3 |
| 20260508134510 | 49 | 136 | 0.0 | 0.0 | 0.00 | 0.03 | 0.00 | 86 | 1010.3 |
| 20260508133008 | 49 | 38 | 0.0 | 0.0 | 0.00 | 0.03 | 0.00 | 86 | 1010.4 |
| 20260508131507 | 49 | 28 | 0.0 | 0.0 | 0.00 | 0.03 | 0.00 | 86 | 1010.5 |
| 20260508130002 | 48 | 28 | 0.0 | 0.0 | 0.00 | 0.03 | 0.00 | 89 | 1010.5 |
| 20260508124602 | 46 | 28 | 0.0 | 2.0 | 0.00 | 0.03 | 0.00 | 90 | 1010.5 |
| 20260508123057 | 46 | 351 | 0.0 | 1.0 | 0.00 | 0.03 | 0.00 | 91 | 1010.5 |
| 20260508121554 | 45 | 341 | 0.0 | 0.0 | 0.00 | 0.03 | 0.00 | 94 | 1010.6 |
| 20260508120053 | 43 | 339 | 0.0 | 0.0 | 0.00 | 0.03 | 0.00 | 96 | 1010.5 |
| 20260508114558 | 41 | 339 | 0.0 | 0.0 | 0.00 | 0.03 | 0.00 | 96 | 1010.4 |
| 20260508113122 | 40 | 339 | 2.0 | 4.0 | 0.00 | 0.03 | 0.00 | 96 | 1010.3 |
| 20260508111551 | 38 | 342 | 2.0 | 4.0 | 0.00 | 0.03 | 0.00 | 96 | 1010.3 |
| 20260508110051 | 38 | 350 | 1.0 | 4.0 | 0.00 | 0.03 | 0.00 | 96 | 1010.2 |
| 20260508104557 | 37 | 11 | 2.0 | 4.0 | 0.00 | 0.03 | 0.00 | 96 | 1010.2 |
| 20260508103059 | 38 | 14 | 2.0 | 4.0 | 0.00 | 0.03 | 0.00 | 96 | 1010.3 |
| 20260508101551 | 38 | 15 | 2.0 | 4.0 | 0.00 | 0.03 | 0.00 | 95 | 1010.2 |
| 20260508100047 | 38 | 15 | 2.0 | 4.0 | 0.00 | 0.03 | 0.00 | 95 | 1010.2 |
| 20260508094544 | 39 | 17 | 2.0 | 3.0 | 0.00 | 0.03 | 0.00 | 95 | 1010.3 |
| 20260508093043 | 39 | 17 | 2.0 | 3.0 | 0.00 | 0.03 | 0.00 | 94 | 1010.3 |
| 20260508091545 | 40 | 17 | 2.0 | 4.0 | 0.00 | 0.03 | 0.00 | 94 | 1010.3 |
| 20260508090045 | 40 | 17 | 1.0 | 4.0 | 0.00 | 0.03 | 0.00 | 95 | 1010.4 |
| 20260508084538 | 40 | 19 | 1.0 | 3.0 | 0.00 | 0.03 | 0.00 | 94 | 1010.5 |